Location: *
(24.1434°N, 56.8729°E)
Time: 22:10:39
(UTC+00:00)

Cosmos 1726 Rocket - Pass Details

Date: 09 April 2020
Orbit: 602 x 630 km, 82.5° (Epoch: 24 May)

Event Time Altitude Azimuth Distance (km) Brightness Sun altitude
Rises 15:35:01 0° 186° (S) 2,867 6.9 -14.9°
Reaches altitude 10° 15:37:13 10° 187° (S) 1,970 6.0 -15.4°
Maximum altitude 15:41:35 83° 273° (W) 628 3.6 -16.3°
Drops below altitude 10° 15:46:01 10° 3° (N) 1,995 6.3 -17.3°
Sets 15:48:15 0° 4° (N) 2,908 7.2 -17.8°
